{"data":{"norad_id":56000,"epoch":"2026-05-24T22:52:14.160288Z","epoch_age_seconds":89432,"freshness":"FRESH","line1":"1 56000U 23042Q   26144.95294167  .00000387  00000+0  23602-4 0  9996","line2":"2 56000  43.0053 348.8428 0001427 271.8304  88.2384 15.27576231174536","mean_motion":15.27576231,"eccentricity":0.0001427,"inclination_deg":43.0053,"raan_deg":348.8428,"arg_perigee_deg":271.8304,"mean_anomaly_deg":88.2384,"bstar":2.3602e-5,"rev_number":17453,"period_min":94.26698129869,"perigee_km":482.08128893836,"apogee_km":484.03947467113,"semimajor_km":6861.1973818047,"source":"CELESTRAK","updated_at":"2026-05-25T13:38:17.924151Z"}}